User: anonymous   Login
Location: Unspecified
(0.0000°N, 0.0000°E)
Time: 02:26:47
(UTC+00:00)
Language:

NOSS 2-3 (E) - Orbit

View from above orbital plane
View from above orbital plane
View from above satellite
View from above satellite

Ground track
Ground track

The orbit data is extracted from the following two-line orbital elements,

1 23936U 96029E   20034.16832058 0.00000000  00000-0  00000-0 0    04
2 23936  63.3673 101.1342 0691954  20.4089 339.5911 13.40927896    02
Epoch (UTC): 03 February 2020 04:02:22
Eccentricity: 0.0691954
inclination: 63.3673°
perigee height: 588 km
apogee height: 1623 km
right ascension of ascending node: 101.1342°
argument of perigee: 20.4089°
revolutions per day: 13.40927896
mean anomaly at epoch: 339.5911°
orbit number at epoch: 0

The dashed part of the orbit path shows where the satellite is in the earth's shadow,  

DLR